Location: Vigo di Fassa
(46.4167°N, 11.6667°E)
Time: 14:56:22
(UTC+00:00)

DMSP B5D2-2 - Pass Details

Date: 03 March 2021
Orbit: 789 x 806 km, 98.3° (Epoch: 17 April)

Event Time Altitude Azimuth Distance (km) Brightness Sun altitude
Rises 18:07:07 0° 20° (NNE) 3,310 7.1 -11.9°
Reaches altitude 10° 18:09:37 10° 28° (NNE) 2,373 6.3 -12.4°
Maximum altitude 18:14:31 39° 97° (E) 1,176 4.5 -13.2°
Drops below altitude 10° 18:19:21 10° 166° (SSE) 2,349 6.3 -14.0°
Sets 18:21:48 0° 174° (S) 3,272 7.1 -14.5°
